Stagione 2025 · Round 9

Spanish Grand Prix

2025-06-01 · Circuito de Barcelona-Catalunya · Spain · Spanish Grand Prix · 66Lap · 307.236km
McLaren 1:32:57.375
Vittoria di squadra 43pt P1 · P2 1-2
McLaren +2.471
Ferrari +10.455
Giro veloce
1:15.743 · L61
Ritiro
2
Andrea Kimi Antonelli L53 Alexander Albon L27
Meteo
29°/49°
media aria/pista · asciutto · umidità 55%
Safety car
1
schierata al giro L55
Uso gomme Direzione gara
Storylines · This Grand Prix & circuit
Più vittorie in questo GP
Lewis Hamilton attivo 6 vittorie
Michael Schumacher 6 vittorie
Max Verstappen attivo 4 vittorie
Conversione pole-vittoria 25/36 69.4%
Most SC/VSC · all-time P14
Most lead changes · all-time P12
Circuito Info
66Lap 307.236km 36 gare held (1991–) Record del giro 1:15.641 · Giancarlo Fisichella (2005)
Record Watch · Active drivers ranked at this Grand Prix
P1 Lewis Hamilton 6 vittorie · GP #1
P3 Max Verstappen 4 vittorie · → Michael Schumacher -2
P8 Fernando Alonso 2 vittorie · → Mika Häkkinen -1
P1 Fernando Alonso 22 partenze · GP #1
P2 Lewis Hamilton 19 partenze · → Fernando Alonso -3
P14 Nico Hülkenberg 12 partenze · → Jean Alesi -1
Gara Trace · position by lap
SC · giri 55–60 partenza da fermo SG 1 6 11 16 21 26 31 36 41 46 51 56 61 66 FIN Piastri · sosta ai box L22 Piastri · sosta ai box L49 Piastri · sosta ai box L55 Piastri PIA Piastri PIA Norris · sosta ai box L21 Norris · sosta ai box L48 Norris · sosta ai box L55 Norris NOR Norris NOR Leclerc · sosta ai box L17 Leclerc · sosta ai box L40 Leclerc · sosta ai box L55 Leclerc LEC Leclerc LEC Russell · sosta ai box L20 Russell · sosta ai box L41 Russell · sosta ai box L55 Russell RUS Russell RUS Hülkenberg · sosta ai box L9 Hülkenberg · sosta ai box L45 Hülkenberg · sosta ai box L56 Hülkenberg HUL Hülkenberg HUL Hamilton · sosta ai box L16 Hamilton · sosta ai box L46 Hamilton · sosta ai box L55 Hamilton HAM Hamilton HAM Hadjar · sosta ai box L19 Hadjar · sosta ai box L48 Hadjar · sosta ai box L55 Hadjar HAD Hadjar HAD Gasly · sosta ai box L10 Gasly · sosta ai box L31 Gasly · sosta ai box L55 Gasly GAS Gasly GAS Alonso · sosta ai box L15 Alonso · sosta ai box L42 Alonso · sosta ai box L54 Alonso ALO Alonso ALO Verstappen · sosta ai box L13 Verstappen · sosta ai box L29 Verstappen · sosta ai box L47 Verstappen · sosta ai box L55 Verstappen · +10s aggiunto a fine gara Verstappen VER Verstappen VER Lawson · sosta ai box L18 Lawson · sosta ai box L44 Lawson LAW Lawson LAW Bortoleto · sosta ai box L19 Bortoleto · sosta ai box L49 Bortoleto BOR Bortoleto BOR Tsunoda · sosta ai box L8 Tsunoda · sosta ai box L24 Tsunoda · sosta ai box L44 Tsunoda · sosta ai box L54 Tsunoda TSU Tsunoda TSU Sainz · sosta ai box L9 Sainz · sosta ai box L34 Sainz · sosta ai box L55 Sainz SAI Sainz SAI Colapinto · sosta ai box L14 Colapinto · sosta ai box L39 Colapinto · sosta ai box L54 Colapinto COL Colapinto COL Ocon · sosta ai box L20 Ocon · sosta ai box L43 Ocon OCO Ocon OCO Bearman · sosta ai box L8 Bearman · sosta ai box L35 Bearman · sosta ai box L54 Bearman · +10s aggiunto a fine gara Bearman BEA Bearman BEA Antonelli · sosta ai box L21 Antonelli · sosta ai box L49 Antonelli · ritiro L53 Antonelli ANT Antonelli ANT Albon · sosta ai box L6 Albon · sosta ai box L26 · penalità scontata Albon · ritiro L27 Albon ALB Albon ALB
SC·VSC sosta ai box penalità scontata ai box SG Griglia di partenza FIN classifica ufficiale penalità aggiunta a fine gara vettura ferma posizione a ogni giro (dal 1996)
PosPilotaTeamGrigliaGiroTempo / StatoPunti
1 81 Oscar Piastri FL McLaren 1 66 1:32:57.375 25
2 4 Lando Norris McLaren 2 66 +2.471 18
3 16 Charles Leclerc Ferrari 7 66 +10.455 15
4 63 George Russell Mercedes 4 66 +11.359 12
5 27 Nico Hülkenberg Sauber 15 66 +13.648 10
6 44 Lewis Hamilton Ferrari 5 66 +15.508 8
7 6 Isack Hadjar RB F1 Team 9 66 +16.022 6
8 10 Pierre Gasly Alpine F1 Team 8 66 +17.882 4
9 14 Fernando Alonso Aston Martin 10 66 +21.564 2
10 1 Max Verstappen Red Bull 3 66 +21.826 1
11 30 Liam Lawson RB F1 Team 13 66 +25.532
12 5 Gabriel Bortoleto Sauber 12 66 +25.996
13 22 Yuki Tsunoda Red Bull 19 66 +28.822
14 55 Carlos Sainz Williams 17 66 +29.309
15 43 Franco Colapinto Alpine F1 Team 18 66 +31.381
16 31 Esteban Ocon Haas F1 Team 16 66 +32.197
17 87 Oliver Bearman Haas F1 Team 14 66 +37.065
R 12 Andrea Kimi Antonelli Mercedes 6 53 Retired
R 23 Alexander Albon Williams 11 27 Retired
PosPilotaTeamQ1Q2Q3Distacco dalla pole
1 81 Oscar Piastri McLaren 1:12.551 1:11.998 1:11.546 POLE Q3
2 4 Lando Norris McLaren 1:12.799 1:12.056 1:11.755 +0.209 Q3
3 1 Max Verstappen Red Bull 1:12.798 1:12.358 1:11.848 +0.302 Q3
4 63 George Russell Mercedes 1:12.806 1:12.407 1:11.848 +0.302 Q3
5 44 Lewis Hamilton Ferrari 1:13.058 1:12.447 1:12.045 +0.499 Q3
6 12 Andrea Kimi Antonelli Mercedes 1:12.815 1:12.585 1:12.111 +0.565 Q3
7 16 Charles Leclerc Ferrari 1:13.014 1:12.495 1:12.131 +0.585 Q3
8 10 Pierre Gasly Alpine F1 Team 1:13.081 1:12.611 1:12.199 +0.653 Q3
9 6 Isack Hadjar RB F1 Team 1:13.139 1:12.461 1:12.252 +0.706 Q3
10 14 Fernando Alonso Aston Martin 1:13.102 1:12.523 1:12.284 +0.738 Q3
11 23 Alexander Albon Williams 1:13.044 1:12.641 +1.095 Q2
12 5 Gabriel Bortoleto Sauber 1:13.045 1:12.756 +1.210 Q2
13 30 Liam Lawson RB F1 Team 1:13.039 1:12.763 +1.217 Q2
14 18 Lance Stroll Aston Martin 1:13.038 1:13.058 +1.492 Q1
15 87 Oliver Bearman Haas F1 Team 1:13.074 1:13.315 +1.528 Q1
16 27 Nico Hülkenberg Sauber 1:13.190 +1.644 Q1
17 31 Esteban Ocon Haas F1 Team 1:13.201 +1.655 Q1
18 55 Carlos Sainz Williams 1:13.203 +1.657 Q1
19 43 Franco Colapinto Alpine F1 Team 1:13.334 +1.788 Q1
20 22 Yuki Tsunoda Red Bull 1:13.385 +1.839 Q1
Griglia di partenza
Ufficiale
Final grid as classificato, including any dalla pit lane partenze. Source: Jolpica-F1. The arrow compares the grid slot with the le qualifiche classification; hover a drop to see the stewards document behind it.
Nessun dato per questa sessione.
PosPilotaGiro miglioreDistaccoGiri
1 4 Lando Norris 1:13.718 29
2 1 Max Verstappen 1:14.085 +0.367 18
3 44 Lewis Hamilton 1:14.096 +0.378 29
4 16 Charles Leclerc 1:14.238 +0.520 31
5 81 Oscar Piastri 1:14.294 +0.576 28
6 30 Liam Lawson 1:14.339 +0.621 28
7 87 Oliver Bearman 1:14.597 +0.879 26
8 6 Isack Hadjar 1:14.605 +0.887 26
9 22 Yuki Tsunoda 1:14.643 +0.925 27
10 10 Pierre Gasly 1:14.746 +1.028 28
11 63 George Russell 1:14.751 +1.033 32
12 18 Lance Stroll 1:14.786 +1.068 24
13 14 Fernando Alonso 1:14.798 +1.080 20
14 27 Nico Hülkenberg 1:14.865 +1.147 21
15 55 Carlos Sainz 1:14.935 +1.217 26
16 5 Gabriel Bortoleto 1:15.155 +1.437 23
17 12 Andrea Kimi Antonelli 1:15.369 +1.651 31
18 43 Franco Colapinto 1:15.530 +1.812 19
Classified by best lap · source OpenF1 (2023+)
PosPilotaGiro miglioreDistaccoGiri
1 81 Oscar Piastri 1:12.760 28
2 63 George Russell 1:13.046 +0.286 32
3 4 Lando Norris 1:13.070 +0.310 31
4 1 Max Verstappen 1:13.070 +0.310 30
5 16 Charles Leclerc 1:13.260 +0.500 33
6 12 Andrea Kimi Antonelli 1:13.298 +0.538 31
7 14 Fernando Alonso 1:13.301 +0.541 28
8 10 Pierre Gasly 1:13.385 +0.625 30
9 6 Isack Hadjar 1:13.400 +0.640 29
10 30 Liam Lawson 1:13.494 +0.734 29
11 44 Lewis Hamilton 1:13.533 +0.773 29
12 27 Nico Hülkenberg 1:13.592 +0.832 30
13 22 Yuki Tsunoda 1:13.683 +0.923 31
14 55 Carlos Sainz 1:13.721 +0.961 34
15 18 Lance Stroll 1:13.839 +1.079 17
16 23 Alexander Albon 1:13.839 +1.079 32
17 5 Gabriel Bortoleto 1:13.959 +1.199 27
18 31 Esteban Ocon 1:14.005 +1.245 30
19 87 Oliver Bearman 1:14.126 +1.366 20
20 43 Franco Colapinto 1:14.303 +1.543 31
Classified by best lap · source OpenF1 (2023+)
PosPilotaGiro miglioreDistaccoGiri
1 81 Oscar Piastri 1:12.387 14
2 4 Lando Norris 1:12.913 +0.526 17
3 16 Charles Leclerc 1:13.130 +0.743 17
4 63 George Russell 1:13.139 +0.752 18
5 1 Max Verstappen 1:13.375 +0.988 14
6 6 Isack Hadjar 1:13.382 +0.995 17
7 12 Andrea Kimi Antonelli 1:13.405 +1.018 12
8 14 Fernando Alonso 1:13.414 +1.027 17
9 44 Lewis Hamilton 1:13.527 +1.140 17
10 30 Liam Lawson 1:13.637 +1.250 18
11 5 Gabriel Bortoleto 1:13.722 +1.335 15
12 27 Nico Hülkenberg 1:13.733 +1.346 17
13 55 Carlos Sainz 1:13.758 +1.371 16
14 22 Yuki Tsunoda 1:13.892 +1.505 12
15 18 Lance Stroll 1:13.904 +1.517 20
16 10 Pierre Gasly 1:13.954 +1.567 19
17 43 Franco Colapinto 1:14.085 +1.698 19
18 31 Esteban Ocon 1:14.138 +1.751 13
19 23 Alexander Albon 1:14.289 +1.902 5
20 87 Oliver Bearman 1:14.460 +2.073 12
Classified by best lap · source OpenF1 (2023+)
#PilotaTempo sul giroGiro
1 81 Oscar Piastri 1:15.743 L61
2 81 Oscar Piastri 1:15.933 L62
3 4 Lando Norris 1:16.187 L61
4 4 Lando Norris 1:16.214 L62
5 81 Oscar Piastri 1:16.377 L63
6 81 Oscar Piastri 1:16.580 L64
7 4 Lando Norris 1:16.716 L63
8 4 Lando Norris 1:16.863 L64
9 81 Oscar Piastri 1:16.994 L65
10 1 Max Verstappen 1:17.019 L62
Top 10 più veloce race giri — #1 is the più veloce lap of la gara(FL).
Pit stop · a confronto
25s 30s 35s mediana 22.2s George Russell · L20 · 21.739s George Russell · L41 · 21.752s Isack Hadjar · L19 · 21.769s Max Verstappen · L47 · 21.802s Yuki Tsunoda · L44 · 21.822s Oscar Piastri · L49 · 21.838s Isack Hadjar · L55 · 21.841s Nico Hülkenberg · L45 · 21.849s Oscar Piastri · L22 · 21.858s Charles Leclerc · L17 · 21.863s Lando Norris · L48 · 21.863s Yuki Tsunoda · L8 · 21.868s Max Verstappen · L13 · 21.869s Franco Colapinto · L54 · 21.874s Charles Leclerc · L40 · 21.893s Nico Hülkenberg · L56 · 21.904s Max Verstappen · L29 · 21.933s Lewis Hamilton · L16 · 21.957s Carlos Sainz · L55 · 21.984s Pierre Gasly · L31 · 22.006s Oliver Bearman · L8 · 22.009s Isack Hadjar · L48 · 22.019s Liam Lawson · L18 · 22.039s Gabriel Bortoleto · L19 · 22.041s Yuki Tsunoda · L24 · 22.056s Franco Colapinto · L39 · 22.119s Liam Lawson · L44 · 22.127s Max Verstappen · L55 · 22.197s Fernando Alonso · L54 · 22.216s Pierre Gasly · L10 · 22.224s Nico Hülkenberg · L9 · 22.233s Andrea Kimi Antonelli · L21 · 22.234s Fernando Alonso · L42 · 22.242s Oliver Bearman · L35 · 22.270s Yuki Tsunoda · L54 · 22.283s Carlos Sainz · L34 · 22.346s Charles Leclerc · L55 · 22.383s Lando Norris · L21 · 22.454s Esteban Ocon · L43 · 22.468s Franco Colapinto · L14 · 22.491s Esteban Ocon · L20 · 22.554s Oscar Piastri · L55 · 22.748s Oliver Bearman · L54 · 22.765s Fernando Alonso · L15 · 22.782s Pierre Gasly · L55 · 22.818s Lewis Hamilton · L55 · 22.830s Gabriel Bortoleto · L49 · 22.953s George Russell · L55 · 23.167s Andrea Kimi Antonelli · L49 · 23.457s Lando Norris · L55 · 23.562s Lewis Hamilton · L46 · 24.416s Carlos Sainz · L9 · 30.547s Alexander Albon · L6 · 30.823s Alexander Albon · L26 · 37.674s · penalità scontata
più veloce 21.739s George Russell più lenta 37.674s Alexander Albon penalità scontata tempo di transito nella dalla pit lane — un punto per sosta
PilotaSostaGiroTempoTransito in dalla pit lane
23 Alexander Albon 1 6 15:11:42 30.823s
22 Yuki Tsunoda 1 8 15:14:32 21.868s
87 Oliver Bearman 1 8 15:14:27 22.009s
27 Nico Hülkenberg 1 9 15:15:44 22.233s
55 Carlos Sainz 1 9 15:15:53 30.547s
10 Pierre Gasly 1 10 15:17:04 22.224s
1 Max Verstappen 1 13 15:20:54 21.869s
43 Franco Colapinto 1 14 15:22:49 22.491s
14 Fernando Alonso 1 15 15:24:11 22.782s
44 Lewis Hamilton 1 16 15:25:09 21.957s
16 Charles Leclerc 1 17 15:26:25 21.863s
30 Liam Lawson 1 18 15:28:12 22.039s
5 Gabriel Bortoleto 1 19 15:29:42 22.041s
6 Isack Hadjar 1 19 15:29:26 21.769s
31 Esteban Ocon 1 20 15:31:09 22.554s
63 George Russell 1 20 15:30:38 21.739s
12 Andrea Kimi Antonelli 1 21 15:32:05 22.234s
4 Lando Norris 1 21 15:31:41 22.454s
81 Oscar Piastri 1 22 15:32:57 21.858s
22 Yuki Tsunoda 2 24 15:36:42 22.056s
23 Alexander Albon 2 26 15:39:35 37.674s
1 Max Verstappen 2 29 15:42:36 21.933s
10 Pierre Gasly 2 31 15:46:11 22.006s
55 Carlos Sainz 2 34 15:50:30 22.346s
87 Oliver Bearman 2 35 15:51:44 22.270s
43 Franco Colapinto 2 39 15:57:43 22.119s
16 Charles Leclerc 2 40 15:57:36 21.893s
63 George Russell 2 41 15:59:07 21.752s
14 Fernando Alonso 2 42 16:01:17 22.242s
31 Esteban Ocon 2 43 16:02:48 22.468s
30 Liam Lawson 2 44 16:03:53 22.127s
22 Yuki Tsunoda 3 44 16:04:10 21.822s
27 Nico Hülkenberg 2 45 16:05:07 21.849s
44 Lewis Hamilton 2 46 16:05:51 24.416s
1 Max Verstappen 3 47 16:06:47 21.802s
6 Isack Hadjar 2 48 16:08:57 22.019s
4 Lando Norris 2 48 16:08:03 21.863s
81 Oscar Piastri 2 49 16:09:17 21.838s
12 Andrea Kimi Antonelli 2 49 16:10:08 23.457s
5 Gabriel Bortoleto 2 49 16:10:54 22.953s
43 Franco Colapinto 3 54 16:18:38 21.874s
14 Fernando Alonso 3 54 16:17:56 22.216s
87 Oliver Bearman 3 54 16:18:00 22.765s
22 Yuki Tsunoda 4 54 16:18:04 22.283s
6 Isack Hadjar 3 55 16:19:13 21.841s
10 Pierre Gasly 3 55 16:19:42 22.818s
44 Lewis Hamilton 3 55 16:18:27 22.830s
55 Carlos Sainz 3 55 16:20:10 21.984s
63 George Russell 3 55 16:18:15 23.167s
16 Charles Leclerc 3 55 16:18:11 22.383s
81 Oscar Piastri 3 55 16:17:39 22.748s
4 Lando Norris 3 55 16:17:44 23.562s
1 Max Verstappen 4 55 16:17:48 22.197s
27 Nico Hülkenberg 3 56 16:21:05 21.904s
soste
SG 10 20 30 40 50 60 L66
81
3
S21
M27
S6·+3
S12·+3
4
3
S20
M27
S7·+3
S12·+3
16
3
S16·+1
M23
M15
S12·+3
63
3
S19·+3
M21
S14
S12
27
3
S8
M36
S11
S11
44
3
S15·+3
M30
S9·+3
S12·+3
6
3
S18·+3
M29
S7
S12·+3
10
3
S9·+2
S21·+3
M24
S12·+3
14
3
S14·+2
M27·+1
S12·+3
S13·+3
1
4
S12·+3
S16
M18
S8·+3
H12
30
2
S17
M26
S23
5
2
S18·+3
M30
S18
22
4
M7
S16
S20
S10
S13·+3
55
3
S8
S25
M21
S12
43
3
S13
M25
S15
S13·+1
31
2
S19
M23
M24
87
3
S7
M27
M19
S13·+6
12
2
S20·+3
M28
S5·+3
23
2
S5·+3
S22
S Soft M Medium H Hard I Intermediate W Wet SC·VSC sosta ai box penalità scontata ai box
Gara · larghezza barra = giri su quel treno, ·+N = montato usato con N giri pregressi · fonte OpenF1 (2023+)
Mescole designate per questo Gran Premio
C1 Dura C2 Media C3 Morbida
Pirelli designa tre delle sue mescole slick per ogni evento; più alto è il numero C, più morbida è la gomma. Documento FIA ↗
Più posizioni guadagnate in pista
14
+19
P10→P9
22
+19
P19→P13
31
+19
P16→P16
5
+17
P12→P12
55
+17
P17→P14
87
+16
P14→P17
10
+15
P8→P8
30
+14
P13→P11
Più posizioni perse
Esteban Ocon −20 Fernando Alonso −19 Gabriel Bortoleto −17
Gara · Somma delle posizioni guadagnate in pista giro per giro — esclusi il giro di partenza e i propri giri ai box. Dati dei giri di gara dal 1996.
PilotaTipoGiroScontataAssegnataMotivo
16 Charles Leclerc No further action Collision involving Car 1 and Car 16 on the start/finish straight. (No further action.) Doc 46 ↗
Collision involving Car 1 and Car 16 on the start/finish straight. (No further action.) Doc 46 ↗
1 Max Verstappen No further action Collision involving Car 1 and Car 16 on the start/finish straight. (No further action.) Doc 45 ↗
Collision involving Car 1 and Car 16 on the start/finish straight. (No further action.) Doc 45 ↗
30 Liam Lawson No further action Car 30 collided with Car 87 and forced Car 87 off the track at turn 1. (No further action.) Doc 43 ↗
Car 30 collided with Car 87 and forced Car 87 off the track at turn 1. (No further action.) Doc 43 ↗
30 Liam Lawson No further action Car 30 allegedly collided with Car 23 at turn 1. (No further action.) Doc 42 ↗
Car 30 allegedly collided with Car 23 at turn 1. (No further action.) Doc 42 ↗
23 Alexander Albon Time penalty 26 26 +10s
Giro 26 · Scontata 26 · +10s
87 Oliver Bearman Time penalty 62 A fine gara +10s Car 87 left the track at turn 1 and gained a lasting advantage. (10 second time penalty.) Doc 41 ↗
Giro 62 · Scontata A fine gara · +10s Car 87 left the track at turn 1 and gained a lasting advantage. (10 second time penalty.) Doc 41 ↗
1 Max Verstappen Time penalty 66 A fine gara +10s · 3pt Car 1 collided with Car 63 at turn 5. (10 second time penalty. 3 penalty points (total of 11 for the 12 month period).) Doc 40 ↗
Giro 66 · Scontata A fine gara · +10s · 3pt Car 1 collided with Car 63 at turn 5. (10 second time penalty. 3 penalty points (total of 11 for the 12 month period).) Doc 40 ↗
Giro = giro in cui è stata inflitta la penalità · Scontata = giro in cui è stata scontata ai box (vuoto: sommata al tempo di gara)
Time, drive-through and stop-go penalties come from race control messages (OpenF1, 2023+). Griglia penalties never appear there — the stewards publish them as documents after the session — so they are worked back from the starting grid against the le qualifiche classification, which gives places actually lost rather than the figure written in the decision.
PilotaTipoGiroScontataAssegnataMotivo
22 Yuki Tsunoda Pit lane start The setup of the suspension has been changed while under Parc Ferme. The front wing specification has been changed while under Parc Ferme. (Required to start the Gara from the dalla pit lane.) Doc 31 ↗
The setup of the suspension has been changed while under Parc Ferme. The front wing specification has been changed while under Parc Ferme. (Required to start the Gara from the dalla pit lane.) Doc 31 ↗
18 Lance Stroll Black-and-white flag warning Pilota of Car 18 failed to be weighed immediately after Qualifiche. (Warning.) Doc 27 ↗
Pilota of Car 18 failed to be weighed immediately after Qualifiche. (Warning.) Doc 27 ↗
14 Fernando Alonso Giri cancellati TRACK LIMITS (PIT)
TRACK LIMITS (PIT)
Giro = giro in cui è stata inflitta la penalità · Scontata = giro in cui è stata scontata ai box (vuoto: sommata al tempo di gara)
Time, drive-through and stop-go penalties come from race control messages (OpenF1, 2023+). Griglia penalties never appear there — the stewards publish them as documents after the session — so they are worked back from the starting grid against the le qualifiche classification, which gives places actually lost rather than the figure written in the decision.
PilotaTipoGiroScontataAssegnataMotivo
43 Franco Colapinto No further action Allegedly leaving the dalla pit lane while facing a technical issue with the car. (No further action.) Doc 17 ↗
Allegedly leaving the dalla pit lane while facing a technical issue with the car. (No further action.) Doc 17 ↗
Giro = giro in cui è stata inflitta la penalità · Scontata = giro in cui è stata scontata ai box (vuoto: sommata al tempo di gara)
Time, drive-through and stop-go penalties come from race control messages (OpenF1, 2023+). Griglia penalties never appear there — the stewards publish them as documents after the session — so they are worked back from the starting grid against the le qualifiche classification, which gives places actually lost rather than the figure written in the decision.
DocTitoloOggettoPublished(CET)
1 Event Notes - Pirelli Preview ↗ 2025-05-28 12:16
2025-05-28 12:16 CET
2 Post-Gara Checks on Car 06, 2025 Monaco GP ↗ 6 Isack Hadjar 2025-05-29 10:06
6 Isack Hadjar 2025-05-29 10:06 CET
3 Gara Director Event Notes - Circuito Map, Pit Lane, Quarantine Zone and Red Zones ↗ 2025-05-29 17:55
2025-05-29 17:55 CET
4 Car Display Procedure ↗ 2025-05-29 18:00
2025-05-29 18:00 CET
5 Gara Director's Event Notes ↗ 2025-05-29 18:50
2025-05-29 18:50 CET
6 PU elements usati per driver up to now ↗ 2025-05-30 09:47
2025-05-30 09:47 CET
7 Self Scrutineering ↗ 2025-05-30 09:49
2025-05-30 09:49 CET
8 Car Presentation Submissions ↗ 2025-05-30 11:03
2025-05-30 11:03 CET
9 Entry List ↗ 2025-05-30 11:36
2025-05-30 11:36 CET
10 New PU elements for this Competition ↗ 2025-05-30 13:34
2025-05-30 13:34 CET
11 P1 Classification ↗ 2025-05-30 14:50
2025-05-30 14:50 CET
12 P2 Classification ↗ 2025-05-30 18:17
2025-05-30 18:17 CET
13 Gara Director Notes - SC2 - SC1 Times ↗ 2025-05-30 18:55
2025-05-30 18:55 CET
14 P1 and P2 Scrutineering ↗ 2025-05-30 19:14
2025-05-30 19:14 CET
15 Post-Qualifiche Procedure ↗ 2025-05-31 10:28
2025-05-31 10:28 CET
16 P3 Classification ↗ 2025-05-31 13:47
2025-05-31 13:47 CET
17 Decision - Car 43 - Allegedly leaving the Pit Lane with a Technical Issue ↗ 43 Franco Colapinto 2025-05-31 17:13
43 Franco Colapinto 2025-05-31 17:13 CET
18 Post Qualifiche Piloti Weighing Procedure ↗ 2025-05-31 17:18
2025-05-31 17:18 CET
19 Provisional Qualifiche Classification ↗ 2025-05-31 17:25
2025-05-31 17:25 CET
20 Summons - Car 18 - Post-Qualifiche Weighing ↗ 18 Lance Stroll 2025-05-31 17:35
18 Lance Stroll 2025-05-31 17:35 CET
21 Decision - Qualifiche SC2-SC1 Times ↗ 2025-05-31 17:40
2025-05-31 17:40 CET
22 P3 and Qualifiche Scrutineering ↗ 2025-05-31 18:59
2025-05-31 18:59 CET
23 Final Qualifiche Classification ↗ 2025-05-31 19:36
2025-05-31 19:36 CET
24 Provisional Starting Griglia ↗ 2025-05-31 19:40
2025-05-31 19:40 CET
25 Infringement - Qualifiche Deleted Giro Times ↗ 2025-05-31 19:45
2025-05-31 19:45 CET
26 Parc Fermé Issues ↗ 2025-06-01 11:48
2025-06-01 11:48 CET
27 Infringement - Car 18 - Post-Qualifiche Weighing ↗ 18 Lance Stroll 2025-06-01 12:17
18 Lance Stroll 2025-06-01 12:17 CET
28 Decision - Car 18 - Withdrawal from the Competition ↗ 18 Lance Stroll 2025-06-01 12:20
18 Lance Stroll 2025-06-01 12:20 CET
29 Pre-Gara Procedure ↗ 2025-06-01 12:35
2025-06-01 12:35 CET
30 Post-Gara Procedure ↗ 2025-06-01 12:42
2025-06-01 12:42 CET
31 Infringement - Car 22 - Changes made during Parc Ferme ↗ 22 Yuki Tsunoda 2025-06-01 12:49
22 Yuki Tsunoda 2025-06-01 12:49 CET
32 Parts and parameters been replaced and or changed during Parc Fermé ↗ 2025-06-01 13:55
2025-06-01 13:55 CET
33 Final Starting Griglia ↗ 2025-06-01 14:00
2025-06-01 14:00 CET
34 Infringement - Car 23 - Leaving the track and gaining an advantage ↗ 23 Alexander Albon 2025-06-01 16:30
23 Alexander Albon 2025-06-01 16:30 CET
35 Provisional Gara Classification ↗ 2025-06-01 17:00
2025-06-01 17:00 CET
36 Infringement - Gara Deleted Giro Times ↗ 2025-06-01 17:18
2025-06-01 17:18 CET
37 Summons - Car 1 - Allegedly caused a collision with Car 16 ↗ 1 Max Verstappen 2025-06-01 17:23
1 Max Verstappen 2025-06-01 17:23 CET
38 Summons - Car 16 - Alleged collision with Car 1 ↗ 16 Charles Leclerc 2025-06-01 17:23
16 Charles Leclerc 2025-06-01 17:23 CET
39 Decision - Car 1 - Alleged leaving the track and gaining an advantage ↗ 1 Max Verstappen 2025-06-01 18:01
1 Max Verstappen 2025-06-01 18:01 CET
40 Infringement - Car 1 - Causing a Collision (With Car 63 at T5) ↗ 1 Max Verstappen 2025-06-01 18:03
1 Max Verstappen 2025-06-01 18:03 CET
41 Infringement - Car 87 - Leaving the track and gaining an advantage ↗ 87 Oliver Bearman 2025-06-01 18:09
87 Oliver Bearman 2025-06-01 18:09 CET
42 Decision - Car 30 - Alleged collision with Car 23 ↗ 30 Liam Lawson 2025-06-01 18:40
30 Liam Lawson 2025-06-01 18:40 CET
43 Decision - Car 30 - Alleged collision with Car 87 ↗ 30 Liam Lawson 2025-06-01 18:46
30 Liam Lawson 2025-06-01 18:46 CET
44 Gara Scrutineering ↗ 2025-06-01 19:02
2025-06-01 19:02 CET
45 Decision - Car 1 - Alleged collision with Car 16 ↗ 1 Max Verstappen 2025-06-01 19:10
1 Max Verstappen 2025-06-01 19:10 CET
46 Decision - Car 16 - Alleged collision with Car 1 ↗ 16 Charles Leclerc 2025-06-01 19:10
16 Charles Leclerc 2025-06-01 19:10 CET
47 Final Gara Classification ↗ 2025-06-01 19:21
2025-06-01 19:21 CET
48 Campionato Punti ↗ 2025-06-01 19:22
2025-06-01 19:22 CET
FIA official decisions and documents (fia.com) · PDF original PDF links
Record Basis · Calculation basis
Gara order is the final classification(post-race penalties applied) · le qualifiche session data 2003+ · lap times 1996+ · pit stops 2012+ (pit-lane transit, not stationary time) · Ritiro = Finished(Finished·+N Giri) non-Finished statuses
Fonti dei dati: Jolpica-F1 (Ergast compatible API) · weather·Direzione gara OpenF1 (2023+) · Last fetched: 2026-09-05 14:15